STARLINK-1596, 46141

Orbit data source: Space-Track

STARLINK-1596, 46141 is a payload satellite owned by SpaceX/Seattle (US) in LEO that was launched on Tue, 18 Aug 2020 UTC via an FALCON 9 launch vehicle from the Air Force Eastern Test Range (AFETR). Payload-class satellites include a variety of spacecraft equipped with specific instruments for various scientific and technological missions. These include communications satellites like Starlink; space stations such as the ISS; scientific satellites like the Hubble; Earth observation satellites from companies like Planet Labs, Umbra, and HawkEye 360; GPS; miniature CubeSats for education and research; and military/defense satellites.

Loading next visibility...
Identifier
46141, 2020-057AA
Orbit
LEO
Country
Flag of USUS
Related business
Manufacturer
SpaceX/Seattle
Mission
Partially operational Commercial Communications
Bus & Motor
STARLINK, Unknown motor
Mass
260 kg wet, ~248 kg dry
Launch date (UTC)
2020-08-18 (5 years ago)
Launch vehicle
FALCON 9
Launch site
Air Force Eastern Test Range (AFETR)
Object type
Payload
Rocket body
Debris
Shape & HBR
Box + 1 Pan, 10.1 m
Radar Cross Section
13.562 m², Large (>1 m²)

Expand to show TLE details & history
Last TLE update: 13 hours ago

TLE from 13 hours ago
0 STARLINK-1596
1 46141U 20057AA  25310.09365686  .00032172  00000-0  11842-2 0  9997
2 46141  53.0459  91.9332 0008333 179.6522 180.4483 15.27569334288270
Epoch: 2025-11-06T02:14Z
TLE epoch observation values (Epoch: 2025-11-06T02:14:51.952Z)
Latitude
-0.00006°
Longitude
12.65977°
Altitude
489.685 km
Speed
7.618 km/s
True Right ascension
06h 07m 43s
True Declination
0° 00' 00"
Sunlit
Object was in full shadow at epoch
Visualization orbit readout
Latitude
Unknown
Longitude
Unknown
Altitude
Unknown
Speed
Unknown
Apparent Right ascension
Unknown
Apparent Declination
Unknown
Sunlit
N/A
Visualization observer readout
Local Sidereal Time
11:46:44
Azimuth
Unknown
Elevation
Unknown
Doppler factor
Unknown
Orbital elements
Apogee altitude
489.073 km
Perigee altitude
477.638 km
Semi-major axis
6,861.493 km
Eccentricity
0.00083
Inclination
53.0459°
RAAN
91.9332°
Arg. of periapsis
179.6522°
True anomaly
180.44755°
Mean anomaly
180.4483°
Eccentric anomaly
180.44793°
Mean motion
3.8187 °/min
Orbital period
94.27 mins
BSTAR
0.0011842
Loading maneuver chart data...
Computing Atmospheric mass density...
Loading historical data...
Loading historical data...
Loading historical data...
Loading historical data...
Loading historical data...
Loading historical data...
Loading historical data...

Documentation

Showing up to 5 results
|